When you browse on this site, cookies collect data to enhance your experience and personalize the content and advertising you see.
Visit our Privacy Policy to learn more. By continuing to use the site, you agree to this use of cookies and data.
  • In Hungary
  • List of Countries
  • For 7 days
  • Water Temperature
  • Satellite Maps
  • Weather Map
  • News
  • Weather Widgets
  • user-avatar
    Login

    Hourly Weather Noci

    Today, 17 June, Monday

    Time Temperature Precipitation Wind Pressure Humidity
    00:00 +24°C° 0 mm 3 mps 725 mmHg 54%
    01:00 +22°C° 0 mm 3 mps 725 mmHg 55%
    02:00 +23°C° 0 mm 2 mps 725 mmHg 55%
    03:00 +23°C° 0 mm 2 mps 724 mmHg 55%
    04:00 +23°C° 0 mm 2 mps 724 mmHg 55%
    05:00 +24°C° 0 mm 2 mps 725 mmHg 55%
    06:00 +24°C° 0 mm 3 mps 725 mmHg 54%
    07:00 +25°C° 0 mm 3 mps 725 mmHg 54%
    08:00 +27°C° 0 mm 3 mps 725 mmHg 49%
    09:00 +28°C° 0 mm 3 mps 725 mmHg 45%
    10:00 +29°C° 0 mm 3 mps 726 mmHg 40%
    11:00 +29°C° 0 mm 3 mps 726 mmHg 39%
    12:00 +30°C° 0 mm 3 mps 726 mmHg 37%
    13:00 +31°C° 0 mm 3 mps 726 mmHg 36%
    14:00 +30°C° 0 mm 3 mps 725 mmHg 38%
    15:00 +29°C° 0 mm 3 mps 725 mmHg 41%
    16:00 +29°C° 0 mm 2 mps 724 mmHg 43%
    17:00 +28°C° 0.1 mm 2 mps 724 mmHg 48%
    18:00 +27°C° 0.1 mm 2 mps 724 mmHg 52%
    19:00 +25°C° 0.1 mm 1 mps 724 mmHg 57%
    20:00 +25°C° 0 mm 1 mps 725 mmHg 58%
    21:00 +24°C° 0 mm 1 mps 725 mmHg 60%
    22:00 +24°C° 0 mm 1 mps 725 mmHg 62%
    23:00 +23°C° 0 mm 1 mps 725 mmHg 67%

    Tomorrow, 18 June, Tuesday

    Time Temperature Precipitation Wind Pressure Humidity
    00:00 +22°C° 0 mm 1 mps 725 mmHg 71%
    01:00 +21°C° 0 mm 2 mps 725 mmHg 76%
    02:00 +22°C° 0 mm 1 mps 725 mmHg 78%
    03:00 +21°C° 0 mm 1 mps 725 mmHg 80%
    04:00 +21°C° 0 mm 1 mps 725 mmHg 82%
    05:00 +22°C° 0 mm 1 mps 725 mmHg 76%
    06:00 +23°C° 0 mm 1 mps 726 mmHg 70%
    07:00 +25°C° 0 mm 1 mps 726 mmHg 63%
    08:00 +26°C° 0 mm 1 mps 726 mmHg 59%
    09:00 +27°C° 0 mm 1 mps 726 mmHg 55%
    10:00 +28°C° 0 mm 2 mps 727 mmHg 51%
    11:00 +28°C° 0.3 mm 2 mps 726 mmHg 51%
    12:00 +28°C° 0.3 mm 2 mps 726 mmHg 52%
    13:00 +28°C° 0.3 mm 3 mps 726 mmHg 52%
    14:00 +28°C° 0.2 mm 2 mps 726 mmHg 52%
    15:00 +28°C° 0.2 mm 2 mps 726 mmHg 52%
    16:00 +28°C° 0.2 mm 2 mps 726 mmHg 52%
    17:00 +27°C° 0.3 mm 2 mps 725 mmHg 56%
    18:00 +26°C° 0.3 mm 1 mps 725 mmHg 60%
    19:00 +25°C° 0.3 mm 1 mps 725 mmHg 64%
    20:00 +24°C° 0.1 mm 1 mps 725 mmHg 66%
    21:00 +24°C° 0.1 mm 1 mps 725 mmHg 68%
    22:00 +23°C° 0.1 mm 1 mps 726 mmHg 69%
    23:00 +23°C° 0 mm 1 mps 725 mmHg 70%

    Day after tomorrow, 19 June, Wednesday

    Time Temperature Precipitation Wind Pressure Humidity
    00:00 +23°C° 0 mm 1 mps 725 mmHg 71%
    01:00 +21°C° 0 mm 0 mps 725 mmHg 72%
    02:00 +22°C° 0 mm 1 mps 725 mmHg 72%
    03:00 +22°C° 0 mm 1 mps 725 mmHg 73%
    04:00 +22°C° 0 mm 1 mps 725 mmHg 73%
    05:00 +23°C° 0 mm 1 mps 725 mmHg 70%
    06:00 +24°C° 0 mm 1 mps 725 mmHg 67%
    07:00 +25°C° 0 mm 1 mps 726 mmHg 64%
    08:00 +26°C° 0 mm 1 mps 726 mmHg 59%
    09:00 +27°C° 0 mm 2 mps 726 mmHg 54%
    10:00 +28°C° 0 mm 2 mps 726 mmHg 49%
    11:00 +28°C° 0 mm 2 mps 726 mmHg 49%
    12:00 +28°C° 0 mm 2 mps 726 mmHg 48%
    13:00 +29°C° 0 mm 2 mps 726 mmHg 48%
    14:00 +28°C° 0.1 mm 2 mps 726 mmHg 49%
    15:00 +28°C° 0.1 mm 2 mps 725 mmHg 50%
    16:00 +28°C° 0.1 mm 2 mps 725 mmHg 51%
    17:00 +27°C° 0 mm 1 mps 725 mmHg 54%
    18:00 +26°C° 0 mm 1 mps 725 mmHg 58%
    19:00 +26°C° 0 mm 1 mps 725 mmHg 61%
    20:00 +25°C° 0 mm 1 mps 725 mmHg 62%
    21:00 +24°C° 0 mm 1 mps 725 mmHg 63%
    22:00 +21°C° 0 mm 0 mps 726 mmHg 64%
    23:00 +23°C° 0 mm 1 mps 725 mmHg 61%

    20 June, Thursday

    Time Temperature Precipitation Wind Pressure Humidity
    00:00 +23°C° 0 mm 1 mps 725 mmHg 59%
    01:00 +23°C° 0 mm 1 mps 725 mmHg 56%
    02:00 +23°C° 0 mm 1 mps 725 mmHg 55%
    03:00 +23°C° 0 mm 1 mps 725 mmHg 54%
    04:00 +22°C° 0 mm 1 mps 725 mmHg 53%
    05:00 +24°C° 0 mm 2 mps 725 mmHg 51%
    06:00 +25°C° 0 mm 2 mps 725 mmHg 50%
    07:00 +26°C° 0 mm 2 mps 726 mmHg 48%
    08:00 +27°C° 0 mm 2 mps 726 mmHg 45%
    09:00 +28°C° 0 mm 3 mps 726 mmHg 43%
    10:00 +29°C° 0 mm 3 mps 726 mmHg 40%
    11:00 +30°C° 0 mm 3 mps 726 mmHg 39%
    12:00 +30°C° 0 mm 4 mps 726 mmHg 37%
    13:00 +32°C° 0 mm 4 mps 726 mmHg 36%
    14:00 +30°C° 0 mm 4 mps 726 mmHg 37%
    15:00 +30°C° 0 mm 4 mps 726 mmHg 37%
    16:00 +30°C° 0 mm 3 mps 726 mmHg 38%
    17:00 +29°C° 0 mm 3 mps 726 mmHg 42%
    18:00 +28°C° 0 mm 2 mps 725 mmHg 46%
    19:00 +26°C° 0 mm 1 mps 725 mmHg 50%
    20:00 +26°C° 0 mm 1 mps 726 mmHg 51%
    21:00 +25°C° 0 mm 1 mps 726 mmHg 52%
    22:00 +25°C° 0 mm 2 mps 726 mmHg 52%
    23:00 +24°C° 0 mm 2 mps 726 mmHg 54%

    21 June, Friday

    Time Temperature Precipitation Wind Pressure Humidity
    00:00 +24°C° 0 mm 2 mps 726 mmHg 56%
    01:00 +24°C° 0 mm 2 mps 726 mmHg 58%
    02:00 +23°C° 0 mm 2 mps 725 mmHg 58%
    03:00 +23°C° 0 mm 1 mps 725 mmHg 58%
    04:00 +23°C° 0 mm 1 mps 725 mmHg 58%
    05:00 +24°C° 0 mm 1 mps 726 mmHg 55%
    06:00 +26°C° 0 mm 1 mps 726 mmHg 51%
    07:00 +27°C° 0 mm 1 mps 726 mmHg 47%
    08:00 +28°C° 0 mm 2 mps 727 mmHg 44%
    09:00 +29°C° 0 mm 2 mps 727 mmHg 41%
    10:00 +30°C° 0 mm 2 mps 727 mmHg 38%
    11:00 +31°C° 0 mm 3 mps 727 mmHg 36%
    12:00 +31°C° 0 mm 3 mps 727 mmHg 34%
    13:00 +33°C° 0 mm 3 mps 727 mmHg 32%
    14:00 +33°C° 0 mm 3 mps 726 mmHg 32%
    15:00 +31°C° 0 mm 3 mps 726 mmHg 32%
    16:00 +31°C° 0 mm 3 mps 726 mmHg 33%
    17:00 +30°C° 0 mm 2 mps 726 mmHg 37%
    18:00 +29°C° 0 mm 2 mps 726 mmHg 41%
    19:00 +27°C° 0 mm 1 mps 726 mmHg 46%
    20:00 +27°C° 0 mm 1 mps 726 mmHg 47%
    21:00 +26°C° 0 mm 2 mps 726 mmHg 48%
    22:00 +25°C° 0 mm 2 mps 726 mmHg 50%
    23:00 +25°C° 0 mm 2 mps 726 mmHg 50%

    22 June, Saturday

    Time Temperature Precipitation Wind Pressure Humidity
    00:00 +25°C° 0 mm 2 mps 725 mmHg 49%
    01:00 +24°C° 0 mm 2 mps 725 mmHg 49%
    02:00 +24°C° 0 mm 2 mps 725 mmHg 50%
    03:00 +24°C° 0 mm 2 mps 725 mmHg 51%
    04:00 +24°C° 0 mm 1 mps 725 mmHg 52%
    05:00 +25°C° 0 mm 1 mps 725 mmHg 49%
    06:00 +26°C° 0 mm 2 mps 726 mmHg 47%
    07:00 +28°C° 0 mm 2 mps 726 mmHg 44%
    08:00 +29°C° 0 mm 2 mps 726 mmHg 41%
    09:00 +30°C° 0 mm 2 mps 726 mmHg 38%
    10:00 +33°C° 0 mm 3 mps 727 mmHg 34%
    11:00 +33°C° 0 mm 3 mps 727 mmHg 34%
    12:00 +34°C° 0 mm 4 mps 727 mmHg 33%
    13:00 +34°C° 0 mm 4 mps 727 mmHg 32%
    14:00 +34°C° 0 mm 4 mps 726 mmHg 33%
    15:00 +33°C° 0 mm 5 mps 726 mmHg 33%
    16:00 +33°C° 0 mm 5 mps 726 mmHg 34%
    17:00 +32°C° 0 mm 4 mps 726 mmHg 37%
    18:00 +30°C° 0 mm 4 mps 726 mmHg 39%
    19:00 +28°C° 0 mm 3 mps 725 mmHg 42%
    20:00 +28°C° 0 mm 3 mps 726 mmHg 43%
    21:00 +27°C° 0 mm 2 mps 726 mmHg 43%
    22:00 +27°C° 0 mm 2 mps 726 mmHg 44%
    23:00 +26°C° 0 mm 2 mps 726 mmHg 46%
    Show more